Regional Weather Roundup
Issued by NWS

Home | Current Version | Previous Version | Graphics & Text | Print | Product List | Glossary Off
Versions: 1 2 3 4 5 6 7 8 9 10 11 12 13 14 15 16 17 18 19 20 21 22 23 24 25 26 27 28 29 30 31 32 33 34 35 36 37 38 39 40 41 42 43 44 45 46 47 48 49 50

000
ASUS43 KTOP 221908
RWRKS

WEATHER ROUNDUP FOR KANSAS
NATIONAL WEATHER SERVICE GOODLAND KS
100 PM CST SAT NOV 22 2014

NOTE:  "FAIR" INDICATES FEW OR NO CLOUDS BELOW 12,000 FEET WITH NO
SIGNIFICANT WEATHER AND/OR OBSTRUCTIONS TO VISIBILITY.

KSZ001>006-013>018-027>032-041>047-222000-
NORTHWEST KANSAS

CITY           SKY/WX    TMP DP  RH WIND       PRES   REMARKS
GOODLAND       MOSUNNY   67  15  13 SW23G29   29.66F
HAYS           SUNNY     59  37  44 S12       29.73F
HILL CITY      SUNNY     64  29  26 S9        29.69F
RUSSELL        SUNNY     59  43  55 S15       29.72F
$$

KSZ061>065-074>080-084>089-222000-
SOUTHWEST KANSAS

CITY           SKY/WX    TMP DP  RH WIND       PRES   REMARKS
DODGE CITY     SUNNY     60  33  36 S15       29.76F
ELKHART          N/A    N/A N/A N/A MISG        N/A
GARDEN CITY    SUNNY     58  34  40 S10       29.72F
GREAT BEND     SUNNY     57  45  62 S24       29.75F
LIBERAL        SUNNY     66  32  28 S16       29.77F
PRATT          CLOUDY    55  52  88 S23       29.80F
$$

KSZ066>073-081>083-090>101-222000-
SOUTHEAST KANSAS

CITY           SKY/WX    TMP DP  RH WIND       PRES   REMARKS
CHANUTE        CLOUDY    59  53  80 S16       29.88F
COFFEYVILLE    CLOUDY    58  53  84 S17G24    29.91F
HUTCHINSON     FOG       54  53  97 S13       29.80F VSB 1/2
MEDICINE LODGE   N/A     49  49 100 S10       29.81F
NEWTON         CLOUDY    55  52  88 SW18G26   29.83F
PARSONS        CLOUDY    58  54  86 S14       29.90F
WICHITA INTL   CLOUDY    57  54  89 S21       29.81F
WICHITA JABRA  PTSUNNY   59  55  87 S22G30    29.81F
WICHITA MCCONL CLOUDY    59  59 100 S21       29.82F
WINFIELD       CLOUDY    60  55  83 S14       29.86F
$$

KSZ007>012-019>026-033>040-048>060-102>105-222000-
NORTHEAST KANSAS

CITY           SKY/WX    TMP DP  RH WIND       PRES   REMARKS
CONCORDIA      SUNNY     58  47  66 S14       29.75F
EMPORIA        CLOUDY    59  57  93 S15G23    29.82F
LAWRENCE       CLOUDY    57  54  89 S14G23    29.83F FOG
MANHATTAN      CLOUDY    56  55  97 SW13      29.79F
MARYSVILLE     CLOUDY    52  50  93 S9        29.77F
OLATHE IND     CLOUDY    57  54  89 S15G24    29.86F
OLATHE EXE     CLOUDY    57  54  89 S13G22    29.85F
SALINA         CLOUDY    59  52  77 S14G24    29.77F
TOPEKA BILLARD CLOUDY    58  57  97 S10       29.82F FOG
TOPEKA FORBES  CLOUDY    57  55  93 S17       29.81F FOG
$$



USA.gov is the U.S. government's official web portal to all federal, state and local government web resources and services.